Airfield :
LOGIN :

Register | Disclaimer

   EN    FR    IT 

 










Legend :    VFR   Marginal VFR   IFR   Intensive IFR   Very Intensive IFR
Visi :
Ceiling :
>= 8 km
>= 3000ft
5 to 8 km
1000 to 3000 ft
1500m to 5 km
500 to 1000 ft
800 to 1500m
200 to 500 ft
< 800m
< 200 ft
Symbols :   Thunderstorms  Fog  Heavy snow  Heavy precipitations  Wind > 20 kt
SIGMETs :     Misc.  Thunderstorms  Icing  Turbulence  Mountain Waves  Volcanic Ashes







- Airport Elevation : 17 ft
- IATA code : GRS


LIRS - Grosseto

CURRENT METAR :
  • 162155Z 05003KT CAVOK 14/10 Q1026 RMK SKC VIS MIN 9999 WIND THR03 06002KT WIND THR21 03001KT BLU

EXPIRED METARs :
  • 162055Z 01004KT CAVOK 16/14 Q1026 RMK SKC VIS MIN 9999 WIND THR03 02004KT WIND THR21 02005KT BLU
  • 161955Z 09002KT CAVOK 17/14 Q1026
  • 161855Z 13004KT CAVOK 18/17 Q1026 RMK SKC VIS MIN 9999 WIND THR03 15003KT WIND THR21 12004KT BLU

TAF TAF LIRS
Valid from the 16 at 21:00 until the 17 at 06:00 UTC


162000Z 1621/1706 VRB03KT CAVOK
No reported NOTAMs for that airfield.



MET'MAP, your aeronautical weather chart ! - Copyright ORBIFLY December 2007 - Disclaimer

ORBIFLY MET'MAP TEAM :

Programming & Development : Alexandra Zaïnal
Concept & Development : Baudouin d'Aumeries
Co-Development & Prog : Marc-Olivier Méhu
Technical & hardware support : Manuel Goepfert

Contact : metmap@orbifly.com




SOURCES & CREDITS :

   NOAA